Time,TemperatureF,DewpointF,PressureIn,WindDirection,WindDirectionDegrees,WindSpeedMPH,WindSpeedGustMPH,Humidity,HourlyPrecipIn,Conditions,Clouds,dailyrainin,SoftwareType,DateUTC
2013-05-05 00:05:00,54.2,38.4,29.95,NNW,346,0.0,0.0,55,0.00,,,0.00,Wunderground v.1.15,2013-05-05 05:05:00,
2013-05-05 00:10:00,53.9,38.1,29.95,NNW,346,0.0,0.0,55,0.00,,,0.00,Wunderground v.1.15,2013-05-05 05:10:00,
2013-05-05 00:19:00,53.6,34.9,29.96,North,350,1.0,1.0,49,0.00,,,0.00,Wunderground v.1.15,2013-05-05 05:19:00,
2013-05-05 00:25:00,54.2,34.9,29.96,North,350,0.0,1.0,48,0.00,,,0.00,Wunderground v.1.15,2013-05-05 05:25:00,
2013-05-05 00:35:00,55.3,35.4,29.96,North,350,0.0,1.0,47,0.00,,,0.00,Wunderground v.1.15,2013-05-05 05:35:00,
2013-05-05 00:40:00,55.7,34.7,29.95,North,350,0.0,0.0,45,0.00,,,0.00,Wunderground v.1.15,2013-05-05 05:40:00,
2013-05-05 00:50:00,56.2,35.1,29.96,North,350,0.0,0.0,45,0.00,,,0.00,Wunderground v.1.15,2013-05-05 05:50:00,
2013-05-05 00:55:00,56.3,34.6,29.95,North,350,0.0,0.0,44,0.00,,,0.00,Wunderground v.1.15,2013-05-05 05:55:00,
2013-05-05 01:05:00,56.5,37.6,29.95,North,350,0.0,0.0,49,0.00,,,0.00,Wunderground v.1.15,2013-05-05 06:05:00,
2013-05-05 01:10:00,56.5,39.1,29.95,North,350,0.0,0.0,52,0.00,,,0.00,Wunderground v.1.15,2013-05-05 06:10:00,
2013-05-05 01:20:00,56.2,38.3,29.95,North,350,0.0,0.0,51,0.00,,,0.00,Wunderground v.1.15,2013-05-05 06:20:00,
2013-05-05 01:25:00,55.9,38.0,29.95,North,350,0.0,0.0,51,0.00,,,0.00,Wunderground v.1.15,2013-05-05 06:25:00,
2013-05-05 01:35:00,55.4,38.5,29.95,North,350,0.0,0.0,53,0.00,,,0.00,Wunderground v.1.15,2013-05-05 06:35:00,
2013-05-05 01:45:00,54.4,38.6,29.95,North,350,0.0,0.0,55,0.00,,,0.00,Wunderground v.1.15,2013-05-05 06:45:00,
2013-05-05 01:55:00,53.8,38.0,29.95,North,350,0.0,0.0,55,0.00,,,0.00,Wunderground v.1.15,2013-05-05 06:55:00,
2013-05-05 02:04:00,53.6,37.8,29.95,North,350,0.0,0.0,55,0.00,,,0.00,Wunderground v.1.15,2013-05-05 07:04:00,
2013-05-05 02:10:00,53.3,36.1,29.95,North,350,0.0,0.0,52,0.00,,,0.00,Wunderground v.1.15,2013-05-05 07:10:00,
2013-05-05 02:20:00,53.2,35.5,29.95,North,350,0.0,0.0,51,0.00,,,0.00,Wunderground v.1.15,2013-05-05 07:20:00,
2013-05-05 02:25:00,53.3,38.4,29.95,North,350,0.0,0.0,57,0.00,,,0.00,Wunderground v.1.15,2013-05-05 07:25:00,
2013-05-05 02:35:00,53.5,39.5,29.95,North,350,0.0,0.0,59,0.00,,,0.00,Wunderground v.1.15,2013-05-05 07:35:00,
2013-05-05 02:40:00,53.5,39.1,29.95,North,350,0.0,0.0,58,0.00,,,0.00,Wunderground v.1.15,2013-05-05 07:40:00,
2013-05-05 02:50:00,53.2,37.0,29.95,North,350,0.0,0.0,54,0.00,,,0.00,Wunderground v.1.15,2013-05-05 07:50:00,
2013-05-05 02:55:00,52.9,37.2,29.95,North,350,0.0,0.0,55,0.00,,,0.00,Wunderground v.1.15,2013-05-05 07:55:00,
2013-05-05 03:04:00,52.3,36.6,29.96,North,350,0.0,0.0,55,0.00,,,0.00,Wunderground v.1.15,2013-05-05 08:04:00,
2013-05-05 03:10:00,51.9,37.1,29.96,North,350,0.0,0.0,57,0.00,,,0.00,Wunderground v.1.15,2013-05-05 08:10:00,
2013-05-05 03:19:00,51.4,37.1,29.96,North,350,0.0,0.0,58,0.00,,,0.00,Wunderground v.1.15,2013-05-05 08:19:00,
2013-05-05 03:25:00,51.3,37.0,29.96,North,352,0.0,0.0,58,0.00,,,0.00,Wunderground v.1.15,2013-05-05 08:25:00,
2013-05-05 03:34:00,51.1,38.5,29.97,North,352,0.0,0.0,62,0.00,,,0.00,Wunderground v.1.15,2013-05-05 08:34:00,
2013-05-05 03:40:00,50.8,37.4,29.97,North,352,0.0,0.0,60,0.00,,,0.00,Wunderground v.1.15,2013-05-05 08:40:00,
2013-05-05 03:50:00,51.3,37.4,29.97,North,353,0.0,0.0,59,0.00,,,0.00,Wunderground v.1.15,2013-05-05 08:50:00,
2013-05-05 03:55:00,51.9,37.1,29.97,North,353,1.0,1.0,57,0.00,,,0.00,Wunderground v.1.15,2013-05-05 08:55:00,
2013-05-05 04:05:00,52.3,37.1,29.98,North,354,1.0,3.0,56,0.00,,,0.00,Wunderground v.1.15,2013-05-05 09:05:00,
2013-05-05 04:10:00,52.3,36.6,29.98,North,354,1.0,1.0,55,0.00,,,0.00,Wunderground v.1.15,2013-05-05 09:10:00,
2013-05-05 04:20:00,52.2,36.5,29.99,North,356,0.0,0.0,55,0.00,,,0.00,Wunderground v.1.15,2013-05-05 09:20:00,
2013-05-05 04:25:00,51.9,36.2,29.99,North,356,0.0,0.0,55,0.00,,,0.00,Wunderground v.1.15,2013-05-05 09:25:00,
2013-05-05 04:34:00,51.6,36.4,29.99,North,356,0.0,0.0,56,0.00,,,0.00,Wunderground v.1.15,2013-05-05 09:34:00,
2013-05-05 04:40:00,51.3,36.1,29.99,North,356,0.0,0.0,56,0.00,,,0.00,Wunderground v.1.15,2013-05-05 09:40:00,
2013-05-05 04:50:00,51.0,36.3,29.99,North,0,1.0,2.0,57,0.00,,,0.00,Wunderground v.1.15,2013-05-05 09:50:00,
2013-05-05 04:55:00,51.0,36.3,30.00,North,0,2.0,7.0,57,0.00,,,0.00,Wunderground v.1.15,2013-05-05 09:55:00,
2013-05-05 05:05:00,51.0,36.3,30.01,North,0,0.0,2.0,57,0.00,,,0.00,Wunderground v.1.15,2013-05-05 10:05:00,
2013-05-05 05:10:00,50.8,36.5,30.01,North,0,0.0,0.0,58,0.00,,,0.00,Wunderground v.1.15,2013-05-05 10:10:00,
2013-05-05 05:20:00,50.5,36.7,30.01,North,0,0.0,0.0,59,0.00,,,0.00,Wunderground v.1.15,2013-05-05 10:20:00,
2013-05-05 05:25:00,50.2,36.4,30.01,North,0,0.0,0.0,59,0.00,,,0.00,Wunderground v.1.15,2013-05-05 10:25:00,
2013-05-05 05:35:00,49.9,36.6,30.01,North,0,0.0,0.0,60,0.00,,,0.00,Wunderground v.1.15,2013-05-05 10:35:00,
2013-05-05 05:40:00,49.6,37.1,30.02,North,0,0.0,0.0,62,0.00,,,0.00,Wunderground v.1.15,2013-05-05 10:40:00,
2013-05-05 05:50:00,49.1,37.0,30.03,North,0,0.0,0.0,63,0.00,,,0.00,Wunderground v.1.15,2013-05-05 10:50:00,
2013-05-05 05:55:00,48.9,36.9,30.03,North,0,0.0,0.0,63,0.00,,,0.00,Wunderground v.1.15,2013-05-05 10:55:00,
2013-05-05 06:04:00,48.6,37.0,30.03,North,0,0.0,0.0,64,0.00,,,0.00,Wunderground v.1.15,2013-05-05 11:04:00,
2013-05-05 06:10:00,48.5,36.9,30.03,North,0,0.0,0.0,64,0.00,,,0.00,Wunderground v.1.15,2013-05-05 11:10:00,
2013-05-05 06:19:00,48.2,37.0,30.03,North,0,0.0,0.0,65,0.00,,,0.00,Wunderground v.1.15,2013-05-05 11:19:00,
2013-05-05 06:25:00,47.9,36.7,30.04,North,0,0.0,0.0,65,0.00,,,0.00,Wunderground v.1.15,2013-05-05 11:25:00,
2013-05-05 06:35:00,47.4,37.0,30.05,North,0,0.0,0.0,67,0.00,,,0.00,Wunderground v.1.15,2013-05-05 11:35:00,
2013-05-05 06:40:00,47.3,36.9,30.05,North,0,0.0,0.0,67,0.00,,,0.00,Wunderground v.1.15,2013-05-05 11:40:00,
2013-05-05 06:50:00,47.3,36.5,30.05,North,0,0.0,0.0,66,0.00,,,0.00,Wunderground v.1.15,2013-05-05 11:50:00,
2013-05-05 06:55:00,47.1,36.7,30.06,North,0,0.0,0.0,67,0.00,,,0.00,Wunderground v.1.15,2013-05-05 11:55:00,
2013-05-05 07:04:00,47.1,36.3,30.07,North,0,0.0,0.0,66,0.00,,,0.00,Wunderground v.1.15,2013-05-05 12:04:00,
2013-05-05 07:10:00,47.3,36.5,30.07,North,0,0.0,0.0,66,0.00,,,0.00,Wunderground v.1.15,2013-05-05 12:10:00,
2013-05-05 07:20:00,47.3,36.9,30.08,North,0,0.0,0.0,67,0.00,,,0.00,Wunderground v.1.15,2013-05-05 12:20:00,
2013-05-05 07:25:00,47.4,37.0,30.08,North,0,0.0,0.0,67,0.00,,,0.00,Wunderground v.1.15,2013-05-05 12:25:00,
2013-05-05 07:35:00,47.9,37.1,30.09,North,0,0.0,0.0,66,0.00,,,0.00,Wunderground v.1.15,2013-05-05 12:35:00,
2013-05-05 07:40:00,48.3,37.1,30.09,North,0,0.0,0.0,65,0.00,,,0.00,Wunderground v.1.15,2013-05-05 12:40:00,
2013-05-05 07:50:00,49.1,37.4,30.09,North,0,1.0,3.0,64,0.00,,,0.00,Wunderground v.1.15,2013-05-05 12:50:00,
2013-05-05 07:55:00,49.6,37.5,30.10,North,1,3.0,6.0,63,0.00,,,0.00,Wunderground v.1.15,2013-05-05 12:55:00,
2013-05-05 08:04:00,50.1,38.4,30.11,North,1,1.0,2.0,64,0.00,,,0.00,Wunderground v.1.15,2013-05-05 13:04:00,
2013-05-05 08:10:00,50.5,38.0,30.11,North,3,2.0,5.0,62,0.00,,,0.00,Wunderground v.1.15,2013-05-05 13:10:00,
2013-05-05 08:19:00,51.1,37.7,30.11,NNE,24,3.0,3.0,60,0.00,,,0.00,Wunderground v.1.15,2013-05-05 13:19:00,
2013-05-05 08:25:00,51.6,38.2,30.11,NNE,14,4.0,4.0,60,0.00,,,0.00,Wunderground v.1.15,2013-05-05 13:25:00,
2013-05-05 08:35:00,52.0,38.1,30.11,North,7,5.0,5.0,59,0.00,,,0.00,Wunderground v.1.15,2013-05-05 13:35:00,
2013-05-05 08:40:00,52.5,38.6,30.11,NNE,17,4.0,7.0,59,0.00,,,0.00,Wunderground v.1.15,2013-05-05 13:40:00,
2013-05-05 08:50:00,53.5,38.2,30.11,North,8,3.0,3.0,56,0.00,,,0.00,Wunderground v.1.15,2013-05-05 13:50:00,
2013-05-05 08:55:00,53.9,39.0,30.11,NNE,13,4.0,8.0,57,0.00,,,0.00,Wunderground v.1.15,2013-05-05 13:55:00,
2013-05-05 09:05:00,54.8,38.5,30.13,NNE,17,3.0,3.0,54,0.00,,,0.00,Wunderground v.1.15,2013-05-05 14:05:00,
2013-05-05 09:10:00,55.3,38.4,30.13,NNE,20,3.0,3.0,53,0.00,,,0.00,Wunderground v.1.15,2013-05-05 14:10:00,
2013-05-05 09:19:00,56.0,39.6,30.13,NNE,17,2.0,2.0,54,0.00,,,0.00,Wunderground v.1.15,2013-05-05 14:19:00,
2013-05-05 09:25:00,56.3,39.4,30.13,North,0,3.0,4.0,53,0.00,,,0.00,Wunderground v.1.15,2013-05-05 14:25:00,
2013-05-05 09:35:00,57.0,39.0,30.12,NE,38,4.0,4.0,51,0.00,,,0.00,Wunderground v.1.15,2013-05-05 14:35:00,
2013-05-05 09:40:00,57.5,40.0,30.12,North,0,4.0,8.0,52,0.00,,,0.00,Wunderground v.1.15,2013-05-05 14:40:00,
2013-05-05 09:50:00,58.6,41.0,30.12,NNW,343,2.0,5.0,52,0.00,,,0.00,Wunderground v.1.15,2013-05-05 14:50:00,
2013-05-05 09:55:00,58.9,40.3,30.12,North,359,4.0,5.0,50,0.00,,,0.00,Wunderground v.1.15,2013-05-05 14:55:00,
2013-05-05 10:04:00,59.3,40.7,30.12,North,11,4.0,7.0,50,0.00,,,0.00,Wunderground v.1.15,2013-05-05 15:04:00,
2013-05-05 10:10:00,59.9,40.7,30.12,North,0,3.0,3.0,49,0.00,,,0.00,Wunderground v.1.15,2013-05-05 15:10:00,
2013-05-05 10:20:00,59.9,40.7,30.12,North,0,4.0,4.0,49,0.00,,,0.00,Wunderground v.1.15,2013-05-05 15:20:00,
2013-05-05 10:25:00,60.4,41.7,30.12,North,353,4.0,7.0,50,0.00,,,0.00,Wunderground v.1.15,2013-05-05 15:25:00,
2013-05-05 10:35:00,61.3,41.4,30.12,North,8,3.0,8.0,48,0.00,,,0.00,Wunderground v.1.15,2013-05-05 15:35:00,
2013-05-05 10:40:00,61.3,40.9,30.12,North,359,5.0,5.0,47,0.00,,,0.00,Wunderground v.1.15,2013-05-05 15:40:00,
2013-05-05 10:50:00,61.6,40.6,30.12,North,3,3.0,3.0,46,0.00,,,0.00,Wunderground v.1.15,2013-05-05 15:50:00,
2013-05-05 10:55:00,62.4,42.4,30.12,North,0,2.0,5.0,48,0.00,,,0.00,Wunderground v.1.15,2013-05-05 15:55:00,
2013-05-05 11:05:00,64.2,42.4,30.12,WNW,289,3.0,3.0,45,0.00,,,0.00,Wunderground v.1.15,2013-05-05 16:05:00,
2013-05-05 11:10:00,64.7,44.0,30.12,WNW,298,2.0,2.0,47,0.00,,,0.00,Wunderground v.1.15,2013-05-05 16:10:00,
2013-05-05 11:19:00,65.3,42.8,30.12,North,359,3.0,3.0,44,0.00,,,0.00,Wunderground v.1.15,2013-05-05 16:19:00,
2013-05-05 11:25:00,65.2,41.5,30.12,North,357,3.0,3.0,42,0.00,,,0.00,Wunderground v.1.15,2013-05-05 16:25:00,
2013-05-05 11:35:00,66.8,43.6,30.12,NW,325,2.0,6.0,43,0.00,,,0.00,Wunderground v.1.15,2013-05-05 16:35:00,
2013-05-05 11:40:00,67.1,42.6,30.12,NW,308,2.0,5.0,41,0.00,,,0.00,Wunderground v.1.15,2013-05-05 16:40:00,
2013-05-05 11:50:00,67.8,41.3,30.11,NW,311,3.0,5.0,38,0.00,,,0.00,Wunderground v.1.15,2013-05-05 16:50:00,
2013-05-05 11:55:00,67.6,43.7,30.11,NNW,330,3.0,5.0,42,0.00,,,0.00,Wunderground v.1.15,2013-05-05 16:55:00,
2013-05-05 12:04:00,68.8,42.8,30.11,West,268,2.0,3.0,39,0.00,,,0.00,Wunderground v.1.15,2013-05-05 17:04:00,
2013-05-05 12:10:00,69.4,42.0,30.11,North,0,2.0,2.0,37,0.00,,,0.00,Wunderground v.1.15,2013-05-05 17:10:00,
2013-05-05 12:20:00,69.3,43.3,30.10,North,0,3.0,10.0,39,0.00,,,0.00,Wunderground v.1.15,2013-05-05 17:20:00,
2013-05-05 12:25:00,69.1,41.0,30.09,NNW,343,3.0,10.0,36,0.00,,,0.00,Wunderground v.1.15,2013-05-05 17:25:00,
2013-05-05 12:35:00,69.9,42.4,30.09,NW,320,3.0,5.0,37,0.00,,,0.00,Wunderground v.1.15,2013-05-05 17:35:00,
2013-05-05 12:40:00,71.1,44.2,30.09,NW,322,3.0,6.0,38,0.00,,,0.00,Wunderground v.1.15,2013-05-05 17:40:00,
2013-05-05 12:50:00,70.9,43.3,30.08,WSW,244,3.0,3.0,37,0.00,,,0.00,Wunderground v.1.15,2013-05-05 17:50:00,
2013-05-05 12:55:00,70.9,44.0,30.08,NW,309,3.0,3.0,38,0.00,,,0.00,Wunderground v.1.15,2013-05-05 17:55:00,
2013-05-05 13:05:00,71.5,44.5,30.08,North,353,3.0,4.0,38,0.00,,,0.00,Wunderground v.1.15,2013-05-05 18:05:00,
2013-05-05 13:10:00,71.6,45.3,30.08,NW,308,2.0,2.0,39,0.00,,,0.00,Wunderground v.1.15,2013-05-05 18:10:00,
2013-05-05 13:20:00,71.5,43.1,30.07,NNW,339,2.0,2.0,36,0.00,,,0.00,Wunderground v.1.15,2013-05-05 18:20:00,
2013-05-05 13:25:00,72.0,42.8,30.07,NW,318,3.0,3.0,35,0.00,,,0.00,Wunderground v.1.15,2013-05-05 18:25:00,
2013-05-05 13:35:00,72.7,42.7,30.06,North,356,4.0,6.0,34,0.00,,,0.00,Wunderground v.1.15,2013-05-05 18:35:00,
2013-05-05 13:40:00,73.0,45.2,30.06,NNW,333,3.0,7.0,37,0.00,,,0.00,Wunderground v.1.15,2013-05-05 18:40:00,
2013-05-05 13:50:00,73.0,44.5,30.05,West,270,2.0,6.0,36,0.00,,,0.00,Wunderground v.1.15,2013-05-05 18:50:00,
2013-05-05 13:55:00,73.9,45.3,30.05,NW,309,3.0,6.0,36,0.00,,,0.00,Wunderground v.1.15,2013-05-05 18:55:00,
2013-05-05 14:05:00,74.0,46.1,30.05,NNE,23,3.0,11.0,37,0.00,,,0.00,Wunderground v.1.15,2013-05-05 19:05:00,
2013-05-05 14:10:00,73.5,44.2,30.05,North,357,4.0,4.0,35,0.00,,,0.00,Wunderground v.1.15,2013-05-05 19:10:00,
2013-05-05 14:20:00,74.6,45.1,30.04,North,349,2.0,2.0,35,0.00,,,0.00,Wunderground v.1.15,2013-05-05 19:20:00,
2013-05-05 14:25:00,74.0,44.6,30.04,North,359,3.0,3.0,35,0.00,,,0.00,Wunderground v.1.15,2013-05-05 19:25:00,
2013-05-05 14:34:00,74.0,46.8,30.04,NW,308,2.0,3.0,38,0.00,,,0.00,Wunderground v.1.15,2013-05-05 19:34:00,
2013-05-05 14:40:00,75.1,45.6,30.04,NW,308,3.0,3.0,35,0.00,,,0.00,Wunderground v.1.15,2013-05-05 19:40:00,
2013-05-05 14:50:00,75.6,46.0,30.03,NNW,329,2.0,2.0,35,0.00,,,0.00,Wunderground v.1.15,2013-05-05 19:50:00,
2013-05-05 14:55:00,74.9,43.8,30.03,NW,323,1.0,2.0,33,0.00,,,0.00,Wunderground v.1.15,2013-05-05 19:55:00,
2013-05-05 15:05:00,74.7,44.5,30.03,North,6,3.0,3.0,34,0.00,,,0.00,Wunderground v.1.15,2013-05-05 20:05:00,
2013-05-05 15:10:00,75.1,47.0,30.03,NW,322,3.0,3.0,37,0.00,,,0.00,Wunderground v.1.15,2013-05-05 20:10:00,
2013-05-05 15:20:00,75.4,46.6,30.02,WNW,302,3.0,3.0,36,0.00,,,0.00,Wunderground v.1.15,2013-05-05 20:20:00,
2013-05-05 15:25:00,75.8,46.2,30.02,NW,323,3.0,3.0,35,0.00,,,0.00,Wunderground v.1.15,2013-05-05 20:25:00,
2013-05-05 15:34:00,76.0,45.6,30.01,North,357,2.0,2.0,34,0.00,,,0.00,Wunderground v.1.15,2013-05-05 20:34:00,
2013-05-05 15:40:00,75.1,47.8,30.01,NNW,347,2.0,2.0,38,0.00,,,0.00,Wunderground v.1.15,2013-05-05 20:40:00,
2013-05-05 15:50:00,74.7,46.0,30.01,North,0,3.0,3.0,36,0.00,,,0.00,Wunderground v.1.15,2013-05-05 20:50:00,
2013-05-05 15:55:00,74.4,45.0,30.00,North,0,3.0,3.0,35,0.00,,,0.00,Wunderground v.1.15,2013-05-05 20:55:00,
2013-05-05 16:05:00,74.6,46.6,30.00,NNW,332,2.0,2.0,37,0.00,,,0.00,Wunderground v.1.15,2013-05-05 21:05:00,
2013-05-05 16:10:00,75.1,46.3,30.00,NW,316,3.0,3.0,36,0.00,,,0.00,Wunderground v.1.15,2013-05-05 21:10:00,
2013-05-05 16:20:00,75.6,44.5,29.99,NNW,346,1.0,6.0,33,0.00,,,0.00,Wunderground v.1.15,2013-05-05 21:20:00,
2013-05-05 16:25:00,75.3,46.5,29.99,West,270,2.0,6.0,36,0.00,,,0.00,Wunderground v.1.15,2013-05-05 21:25:00,
2013-05-05 16:35:00,74.9,46.1,29.99,NNW,343,1.0,6.0,36,0.00,,,0.00,Wunderground v.1.15,2013-05-05 21:35:00,
2013-05-05 16:40:00,74.7,47.4,29.99,NW,308,1.0,1.0,38,0.00,,,0.00,Wunderground v.1.15,2013-05-05 21:40:00,
2013-05-05 16:50:00,74.7,46.0,29.98,North,353,1.0,3.0,36,0.00,,,0.00,Wunderground v.1.15,2013-05-05 21:50:00,
2013-05-05 16:55:00,74.4,45.7,29.99,NW,316,2.0,3.0,36,0.00,,,0.00,Wunderground v.1.15,2013-05-05 21:55:00,
2013-05-05 17:04:00,73.9,45.3,29.98,NW,319,1.0,8.0,36,0.00,,,0.00,Wunderground v.1.15,2013-05-05 22:04:00,
2013-05-05 17:10:00,73.7,44.3,29.98,North,0,2.0,7.0,35,0.00,,,0.00,Wunderground v.1.15,2013-05-05 22:10:00,
2013-05-05 17:20:00,73.2,45.4,29.98,North,3,2.0,2.0,37,0.00,,,0.00,Wunderground v.1.15,2013-05-05 22:20:00,
2013-05-05 17:25:00,73.2,45.4,29.98,North,10,1.0,5.0,37,0.00,,,0.00,Wunderground v.1.15,2013-05-05 22:25:00,
2013-05-05 17:35:00,73.2,44.6,29.98,North,0,1.0,4.0,36,0.00,,,0.00,Wunderground v.1.15,2013-05-05 22:35:00,
2013-05-05 17:40:00,73.0,44.5,29.98,North,359,1.0,1.0,36,0.00,,,0.00,Wunderground v.1.15,2013-05-05 22:40:00,
2013-05-05 17:50:00,72.8,45.0,29.99,North,0,3.0,3.0,37,0.00,,,0.00,Wunderground v.1.15,2013-05-05 22:50:00,
2013-05-05 17:55:00,72.7,45.6,29.98,North,359,2.0,3.0,38,0.00,,,0.00,Wunderground v.1.15,2013-05-05 22:55:00,
2013-05-05 18:05:00,72.7,45.6,29.99,North,350,1.0,1.0,38,0.00,,,0.00,Wunderground v.1.15,2013-05-05 23:05:00,
2013-05-05 18:10:00,72.8,45.7,29.98,North,354,1.0,1.0,38,0.00,,,0.00,Wunderground v.1.15,2013-05-05 23:10:00,
2013-05-05 18:20:00,72.7,45.6,29.98,North,356,1.0,1.0,38,0.00,,,0.00,Wunderground v.1.15,2013-05-05 23:20:00,
2013-05-05 18:25:00,72.5,46.1,29.98,NNW,343,1.0,1.0,39,0.00,,,0.00,Wunderground v.1.15,2013-05-05 23:25:00,
2013-05-05 18:35:00,72.3,45.9,29.98,NNW,343,1.0,1.0,39,0.00,,,0.00,Wunderground v.1.15,2013-05-05 23:35:00,
2013-05-05 18:40:00,72.3,45.9,29.98,NNW,343,1.0,1.0,39,0.00,,,0.00,Wunderground v.1.15,2013-05-05 23:40:00,
2013-05-05 18:49:00,72.0,45.0,29.99,North,11,1.0,2.0,38,0.00,,,0.00,Wunderground v.1.15,2013-05-05 23:49:00,
2013-05-05 18:55:00,72.0,45.0,29.99,North,357,2.0,2.0,38,0.00,,,0.00,Wunderground v.1.15,2013-05-05 23:55:00,
2013-05-05 19:05:00,71.8,44.8,29.98,North,356,1.0,3.0,38,0.00,,,0.00,Wunderground v.1.15,2013-05-06 00:05:00,
2013-05-05 19:10:00,71.5,44.5,29.99,North,357,1.0,1.0,38,0.00,,,0.00,Wunderground v.1.15,2013-05-06 00:10:00,
2013-05-05 19:20:00,71.1,44.2,29.99,North,0,0.0,0.0,38,0.00,,,0.00,Wunderground v.1.15,2013-05-06 00:20:00,
2013-05-05 19:25:00,70.9,45.4,29.99,North,0,0.0,0.0,40,0.00,,,0.00,Wunderground v.1.15,2013-05-06 00:25:00,
2013-05-05 19:35:00,70.4,44.3,29.99,North,0,0.0,0.0,39,0.00,,,0.00,Wunderground v.1.15,2013-05-06 00:35:00,
2013-05-05 19:40:00,70.1,44.0,29.99,North,359,1.0,1.0,39,0.00,,,0.00,Wunderground v.1.15,2013-05-06 00:40:00,
2013-05-05 19:49:00,69.6,44.2,29.99,North,359,1.0,1.0,40,0.00,,,0.00,Wunderground v.1.15,2013-05-06 00:49:00,
2013-05-05 19:55:00,69.3,43.9,29.99,North,359,0.0,1.0,40,0.00,,,0.00,Wunderground v.1.15,2013-05-06 00:55:00,
2013-05-05 20:05:00,68.6,44.6,29.98,North,359,0.0,0.0,42,0.00,,,0.00,Wunderground v.1.15,2013-05-06 01:05:00,
2013-05-05 20:10:00,68.1,44.7,29.99,North,359,0.0,0.0,43,0.00,,,0.00,Wunderground v.1.15,2013-05-06 01:10:00,
2013-05-05 20:20:00,67.1,45.0,29.99,North,359,0.0,0.0,45,0.00,,,0.00,Wunderground v.1.15,2013-05-06 01:20:00,
2013-05-05 20:25:00,66.3,45.5,30.00,North,359,0.0,0.0,47,0.00,,,0.00,Wunderground v.1.15,2013-05-06 01:25:00,
2013-05-05 20:35:00,64.5,45.4,30.00,North,359,0.0,0.0,50,0.00,,,0.00,Wunderground v.1.15,2013-05-06 01:35:00,
2013-05-05 20:40:00,63.4,44.9,30.00,North,357,0.0,0.0,51,0.00,,,0.00,Wunderground v.1.15,2013-05-06 01:40:00,
2013-05-05 20:49:00,61.6,45.3,30.01,North,359,0.0,0.0,55,0.00,,,0.00,Wunderground v.1.15,2013-05-06 01:49:00,
2013-05-05 20:55:00,60.7,44.9,30.01,North,359,0.0,0.0,56,0.00,,,0.00,Wunderground v.1.15,2013-05-06 01:55:00,
2013-05-05 21:05:00,59.6,44.8,30.01,North,359,0.0,0.0,58,0.00,,,0.00,Wunderground v.1.15,2013-05-06 02:05:00,
2013-05-05 21:10:00,59.2,44.4,30.01,North,359,0.0,0.0,58,0.00,,,0.00,Wunderground v.1.15,2013-05-06 02:10:00,
2013-05-05 21:20:00,58.4,44.1,30.02,North,359,0.0,0.0,59,0.00,,,0.00,Wunderground v.1.15,2013-05-06 02:20:00,
2013-05-05 21:25:00,58.0,44.2,30.02,North,359,0.0,0.0,60,0.00,,,0.00,Wunderground v.1.15,2013-05-06 02:25:00,
2013-05-05 21:35:00,57.3,43.5,30.02,North,357,0.0,0.0,60,0.00,,,0.00,Wunderground v.1.15,2013-05-06 02:35:00,
2013-05-05 21:40:00,56.9,44.0,30.03,North,359,0.0,0.0,62,0.00,,,0.00,Wunderground v.1.15,2013-05-06 02:40:00,
2013-05-05 21:50:00,56.2,43.8,30.03,North,359,0.0,0.0,63,0.00,,,0.00,Wunderground v.1.15,2013-05-06 02:50:00,
2013-05-05 21:55:00,56.0,43.6,30.04,North,359,0.0,0.0,63,0.00,,,0.00,Wunderground v.1.15,2013-05-06 02:55:00,
2013-05-05 22:04:00,55.4,43.8,30.04,North,359,0.0,0.0,65,0.00,,,0.00,Wunderground v.1.15,2013-05-06 03:04:00,
2013-05-05 22:10:00,55.1,43.5,30.04,North,359,0.0,0.0,65,0.00,,,0.00,Wunderground v.1.15,2013-05-06 03:10:00,
2013-05-05 22:20:00,54.7,44.3,30.04,North,359,0.0,0.0,68,0.00,,,0.00,Wunderground v.1.15,2013-05-06 03:20:00,
2013-05-05 22:25:00,54.5,44.2,30.04,North,357,0.0,0.0,68,0.00,,,0.00,Wunderground v.1.15,2013-05-06 03:25:00,
2013-05-05 22:35:00,54.1,43.8,30.04,North,359,0.0,0.0,68,0.00,,,0.00,Wunderground v.1.15,2013-05-06 03:35:00,
2013-05-05 22:40:00,53.9,43.6,30.05,North,357,0.0,0.0,68,0.00,,,0.00,Wunderground v.1.15,2013-05-06 03:40:00,
2013-05-05 22:50:00,53.6,43.7,30.05,North,359,0.0,0.0,69,0.00,,,0.00,Wunderground v.1.15,2013-05-06 03:50:00,
2013-05-05 22:55:00,53.5,43.6,30.05,North,359,0.0,0.0,69,0.00,,,0.00,Wunderground v.1.15,2013-05-06 03:55:00,
2013-05-05 23:04:00,53.2,44.0,30.05,North,359,0.0,0.0,71,0.00,,,0.00,Wunderground v.1.15,2013-05-06 04:04:00,
2013-05-05 23:10:00,53.1,43.9,30.05,North,359,0.0,0.0,71,0.00,,,0.00,Wunderground v.1.15,2013-05-06 04:10:00,
2013-05-05 23:15:00,52.9,43.7,30.05,North,357,0.0,0.0,71,0.00,,,0.00,Wunderground v.1.15,2013-05-06 04:15:00,
2013-05-05 23:20:00,52.8,43.7,30.05,North,359,0.0,0.0,71,0.00,,,0.00,Wunderground v.1.15,2013-05-06 04:20:00,
2013-05-05 23:25:00,52.8,44.0,30.05,North,359,0.0,0.0,72,0.00,,,0.00,Wunderground v.1.15,2013-05-06 04:25:00,
2013-05-05 23:35:00,52.5,43.7,30.05,North,359,0.0,0.0,72,0.00,,,0.00,Wunderground v.1.15,2013-05-06 04:35:00,
2013-05-05 23:40:00,52.5,44.1,30.05,North,359,0.0,0.0,73,0.00,,,0.00,Wunderground v.1.15,2013-05-06 04:40:00,
2013-05-05 23:50:00,52.2,43.8,30.06,North,357,0.0,0.0,73,0.00,,,0.00,Wunderground v.1.15,2013-05-06 04:50:00,
2013-05-05 23:55:00,52.0,43.6,30.05,North,357,0.0,0.0,73,0.00,,,0.00,Wunderground v.1.15,2013-05-06 04:55:00,